Regional Weather Roundup
Issued by NWS

Home | Current Version | Previous Version | Text Only | Print | Product List | Glossary Off
Versions: 1 2 3 4 5 6 7 8 9 10 11 12 13 14 15 16 17 18 19 20 21 22 23 24 25 26 27 28 29 30 31 32 33 34 35 36 37 38 39 40 41 42 43 44 45 46 47 48 49 50

000
ASUS43 KMKX 011659
RWRWI

WISCONSIN REGIONAL WEATHER ROUNDUP
NATIONAL WEATHER SERVICE MILWAUKEE/SULLIVAN WI
1200 PM CDT WED APR 01 2015

NOTE: "FAIR" INDICATES FEW OR NO CLOUDS BELOW 12,000 FEET WITH NO
SIGNIFICANT WEATHER AND/OR OBSTRUCTIONS TO VISIBILITY.

WIZ001-002-006>008-014>016-023>028-011800-
NORTHWEST WISCONSIN

CITY           SKY/WX    TMP DP  RH WIND       PRES   REMARKS
SUPERIOR ARPT  CLOUDY    37  33  85 E17G23    29.74F WCI  27
ASHLAND        MOSUNNY   45  35  68 N6        29.75F
HAYWARD        PTSUNNY   54  32  43 S16G24    29.74F
SIREN          PTSUNNY   60  32  35 S14G22    29.69F
CUMBERLAND     CLOUDY    54  32  43 SE16      29.74F
RICE LAKE      CLOUDY    56  32  40 SE16G22   29.78F
CHETEK         CLOUDY    56  34  44 SE16      29.78F
LADYSMITH      MOSUNNY   55  34  44 SE17G24   29.83F
EAU CLAIRE     NOT AVBL
MENOMONIE      PTSUNNY   60  33  36 SE15      29.77F
NEW RICHMOND   MOSUNNY   63  34  33 S15       29.71F
OSCEOLA        MOSUNNY   62  35  37 SE16G22   29.72F
$$

WIZ003>005-009-010-017-018-011800-
NORTH CENTRAL WISCONSIN

CITY           SKY/WX    TMP DP  RH WIND       PRES   REMARKS
MANITOWISH WTR CLOUDY    45  31  58 SE10G21   29.86F
ARBOR VITAE    CLOUDY    45  32  61 SE14      29.88F
WOODRUFF       CLOUDY    45  32  61 SE14      29.88F
RHINELANDER    CLOUDY    49  31  49 SE14      29.90F
EAGLE RIVER    CLOUDY    43  30  61 SE7       29.90F
LAND O LAKES   CLOUDY    43  30  60 SE10      29.91F
PHILLIPS       PTSUNNY   51  33  48 S12G23    29.84F
TOMAHAWK       MOSUNNY   49  33  52 SE5       29.90F
MEDFORD        SUNNY     51  35  53 SE16G25   29.86F
MERRILL        MOSUNNY   49  33  54 SE12G18   29.91F
$$

WIZ029-030-035-036-043>047-011800-
CENTRAL WISCONSIN

CITY           SKY/WX    TMP DP  RH WIND       PRES   REMARKS
WAUSAU         SUNNY     52  33  48 SE14G21   29.90F
MOSINEE        SUNNY     52  34  50 SE15      29.92F
MARSHFIELD     SUNNY     59  33  37 S18G26    29.87F
STEVENS POINT  SUNNY     51  32  47 SE15      29.94F
WAUPACA        SUNNY     55  33  43 E12       29.98F
WAUTOMA        NOT AVBL
WISC RAPIDS    SUNNY     58  30  34 SE15G23   29.91F
CAMP DOUGLAS   NOT AVBL
$$

WIZ011>013-019>022-031-037>040-048>050-011800-
NORTHEAST WISCONSIN

CITY           SKY/WX    TMP DP  RH WIND       PRES   REMARKS
ANTIGO         MOSUNNY   45  35  66 SE14      29.96F
SHAWANO        MOSUNNY   48  35  61 SE9       30.01F
OCONTO         MOSUNNY   45  34  65 SE9       30.03F
STURGEON BAY   CLOUDY    41  30  65 SE9       30.06F
GREEN BAY      MOSUNNY   49  37  63 S13       30.01F
MANITOWOC      NOT AVBL
APPLETON       MOSUNNY   50  34  53 SE14      30.00F
CLINTONVILLE   MOSUNNY   46  34  61 SE10      30.00F
OSHKOSH        SUNNY     55  34  45 SE9       29.99F
$$

WIZ032>034-041-042-053>061-011800-
SOUTHWEST WISCONSIN

CITY           SKY/WX    TMP DP  RH WIND       PRES   REMARKS
LA CROSSE      SUNNY     64  33  31 S18       29.82F
SPARTA         SUNNY     64  31  28 S16       29.87F
VIROQUA        SUNNY     63  35  34 S16       29.88F
BOSCOBEL       SUNNY     70  35  27 SW10G18   29.88F
PRAIRIE DU CHI SUNNY     67  32  27 SE5       29.87F
PLATTEVILLE    SUNNY     66  36  32 S15       29.92F
$$

WIZ056-057-062-063-064-067-068-011800-
SOUTH CENTRAL WISCONSIN

CITY           SKY/WX    TMP DP  RH WIND       PRES   REMARKS
REEDSBURG      SUNNY     60  35  38 S9G18     29.91F
BARABOO/DELLS  SUNNY     60  32  34 S12       29.92F
LONE ROCK      NOT AVBL
MINERAL POINT  SUNNY     64  34  32 SE14      29.92F
MADISON        MOSUNNY   64  34  32 S17       29.95F
MIDDLETON      SUNNY     61  35  38 SE9       29.96F
WATERTOWN      SUNNY     60  37  43 S10       29.99F
MONROE         SUNNY     64  36  34 SE13      29.95F
JANESVILLE     SUNNY     64  36  34 SE12      29.97F
$$

WIZ051-052-058>065-066-070>072-011800-
SOUTHEAST WISCONSIN

CITY           SKY/WX    TMP DP  RH WIND       PRES   REMARKS
MILWAUKEE      MOSUNNY   50  34  54 SE12      30.03F
WAUKESHA       MOSUNNY   57  36  44 SE9       30.02F
MILWAUKEE/TIMM SUNNY     55  32  41 SE8       30.03F
RACINE         SUNNY     49  35  58 SE10      30.05F
BURLINGTON     SUNNY     59  35  41 SE5       30.01F
KENOSHA        SUNNY     55  38  52 E10       30.03F
FOND DU LAC    SUNNY     58  34  40 SE13      29.99F
SHEBOYGAN      MOSUNNY   50  35  56 MISG      30.04F
WEST BEND      SUNNY     54  32  43 SE10      30.02F
JUNEAU         SUNNY     57  35  44 SE14      30.00F
$$

LSZ147-162-011800-
LAKE SUPERIOR

STATION/POSITION TIME  TEMP    WIND        PRES    WAVE
                       AIR SEA DIR/SP/G            HT/PER
                 (UTC) (F)     (DEG/KT/KT) (MB)    (FT/S)
DEVILS ISLAND    1600   33      70/ 12/ 13 1010.9F
PORT WING        1640   36      20/ 18/ 20 1007.1F
SAXON HARBOR     1620   52     170/  7/ 17 1008.5F
$$

LMZ867-665-643>646-011800-
LAKE MICHIGAN

STATION/POSITION TIME  TEMP    WIND        PRES    WAVE
                       AIR SEA DIR/SP/G            HT/PER
                 (UTC) (F)     (DEG/KT/KT) (MB)    (FT/S)
NORTHPORT PIER   1602   32     130/  6/  6 1017.9F
SISTER BAY       1502   42     170/ 10/ 12   N/A
KEWAUNEE LAKESHO 1600   36     160/  4/  6 1017.7R
SHEBOYGAN LAKESH 1600   36     190/  3/  4 1019.1F
PORT WASHINGTON  1640   41     120/  3/  4 1018.3F
MILWAUKEE LAKESH 1600   39      30/  4/  4   N/A
KENOSHA   LAKESH 1600   40     140/  5/  6 1017.9F
$$

TC  - TEMPERATURE IN CELSIUS
VSB - VISIBILITY IN STATUTE MILES
WCI - WIND CHILL INDEX
HX  - HEAT INDEX




USA.gov is the U.S. government's official web portal to all federal, state and local government web resources and services.